Time,TemperatureF,DewpointF,PressureIn,WindDirection,WindDirectionDegrees,WindSpeedMPH,WindSpeedGustMPH,Humidity,HourlyPrecipIn,Conditions,Clouds,dailyrainin,SolarRadiationWatts/m^2,SoftwareType,DateUTC
2013-09-10 00:03:00,73.0,73.0,-100.00,SE,128,1.0,3.0,100,0.00,,,0.01,0.000000,,2013-09-10 05:03:00,
2013-09-10 00:13:00,73.0,73.0,-100.00,SE,128,1.0,3.0,100,0.00,,,0.01,0.000000,,2013-09-10 05:13:00,
2013-09-10 00:43:00,73.0,73.0,-100.00,SSW,208,0.0,2.0,100,0.00,,,0.01,0.000000,,2013-09-10 05:43:00,
2013-09-10 00:53:00,73.0,73.0,-100.00,SSW,208,0.0,2.0,100,0.00,,,0.01,0.000000,,2013-09-10 05:53:00,
2013-09-10 01:03:00,73.0,73.0,-100.00,SSW,208,0.0,2.0,100,0.00,,,0.01,0.000000,,2013-09-10 06:03:00,
2013-09-10 01:12:00,73.0,73.0,-100.00,SSW,208,0.0,2.0,100,0.00,,,0.01,0.000000,,2013-09-10 06:12:00,
2013-09-10 01:43:00,71.0,71.0,-100.00,East,84,1.0,2.0,100,0.00,,,0.01,0.000000,,2013-09-10 06:43:00,
2013-09-10 01:52:00,71.0,71.0,-100.00,East,84,1.0,2.0,100,0.00,,,0.01,0.000000,,2013-09-10 06:52:00,
2013-09-10 02:01:00,71.0,71.0,-100.00,East,84,1.0,2.0,100,0.00,,,0.01,0.000000,,2013-09-10 07:01:00,
2013-09-10 02:12:00,71.0,71.0,-100.00,East,84,1.0,2.0,100,0.00,,,0.01,0.000000,,2013-09-10 07:12:00,
2013-09-10 02:42:00,71.0,71.0,-100.00,East,79,0.0,2.0,100,0.00,,,0.01,0.000000,,2013-09-10 07:42:00,
2013-09-10 02:52:00,71.0,71.0,-100.00,East,79,0.0,2.0,100,0.00,,,0.01,0.000000,,2013-09-10 07:52:00,
2013-09-10 03:02:00,71.0,71.0,-100.00,East,79,0.0,2.0,100,0.00,,,0.01,0.000000,,2013-09-10 08:02:00,
2013-09-10 03:12:00,71.0,71.0,-100.00,East,79,0.0,2.0,100,0.00,,,0.01,0.000000,,2013-09-10 08:12:00,
2013-09-10 03:42:00,72.0,72.0,-100.00,ENE,58,0.0,2.0,100,0.00,,,0.01,0.000000,,2013-09-10 08:42:00,
2013-09-10 03:52:00,72.0,72.0,-100.00,ENE,58,0.0,2.0,100,0.00,,,0.01,0.000000,,2013-09-10 08:52:00,
2013-09-10 04:02:00,72.0,72.0,-100.00,ENE,58,0.0,2.0,100,0.00,,,0.01,0.000000,,2013-09-10 09:02:00,
2013-09-10 04:11:00,72.0,72.0,-100.00,ENE,58,0.0,2.0,100,0.00,,,0.01,0.000000,,2013-09-10 09:11:00,
2013-09-10 04:43:00,72.0,72.0,-100.00,SW,216,0.0,2.0,100,0.00,,,0.00,0.000000,,2013-09-10 09:43:00,
2013-09-10 04:54:00,72.0,72.0,-100.00,SW,216,0.0,2.0,100,0.00,,,0.00,0.000000,,2013-09-10 09:54:00,
2013-09-10 05:03:00,72.0,72.0,-100.00,SW,216,0.0,2.0,100,0.00,,,0.00,0.000000,,2013-09-10 10:03:00,
2013-09-10 05:13:00,72.0,72.0,-100.00,SW,216,0.0,2.0,100,0.00,,,0.00,0.000000,,2013-09-10 10:13:00,
2013-09-10 05:43:00,71.0,71.0,-100.00,NW,313,0.0,2.0,100,0.00,,,0.00,0.000000,,2013-09-10 10:43:00,
2013-09-10 05:53:00,71.0,71.0,-100.00,NW,313,0.0,2.0,100,0.00,,,0.00,0.000000,,2013-09-10 10:53:00,
2013-09-10 06:03:00,71.0,71.0,-100.00,NW,313,0.0,2.0,100,0.00,,,0.00,0.000000,,2013-09-10 11:03:00,
2013-09-10 06:12:00,71.0,71.0,-100.00,NW,313,0.0,2.0,100,0.00,,,0.00,0.000000,,2013-09-10 11:12:00,
2013-09-10 08:52:00,74.0,74.0,-100.00,SE,135,0.0,2.0,100,-99.99,,,0.00,70.000000,,2013-09-10 13:52:00,
2013-09-10 09:02:00,74.0,74.0,-100.00,SE,135,0.0,2.0,100,-99.99,,,0.00,70.000000,,2013-09-10 14:02:00,
2013-09-10 09:11:00,74.0,74.0,-100.00,SE,135,0.0,2.0,100,-99.99,,,0.00,70.000000,,2013-09-10 14:11:00,
2013-09-10 09:42:00,77.0,75.0,-100.00,ESE,123,0.0,2.0,93,0.00,,,0.00,88.000000,,2013-09-10 14:42:00,
2013-09-10 09:52:00,77.0,75.0,-100.00,ESE,123,0.0,2.0,93,0.00,,,0.00,88.000000,,2013-09-10 14:52:00,
2013-09-10 10:02:00,77.0,75.0,-100.00,ESE,123,0.0,2.0,93,0.00,,,0.00,88.000000,,2013-09-10 15:02:00,
2013-09-10 10:11:00,77.0,75.0,-100.00,ESE,123,0.0,2.0,93,0.00,,,0.00,88.000000,,2013-09-10 15:11:00,
2013-09-10 10:43:00,80.0,74.0,-100.00,SW,220,3.0,9.0,83,0.00,,,0.00,192.000000,,2013-09-10 15:43:00,
2013-09-10 10:54:00,80.0,74.0,-100.00,SW,220,3.0,9.0,83,0.00,,,0.00,192.000000,,2013-09-10 15:54:00,
2013-09-10 11:03:00,80.0,74.0,-100.00,SW,220,3.0,9.0,83,0.00,,,0.00,192.000000,,2013-09-10 16:03:00,
2013-09-10 11:13:00,80.0,74.0,-100.00,SW,220,3.0,9.0,83,0.00,,,0.00,192.000000,,2013-09-10 16:13:00,
2013-09-10 11:43:00,83.0,74.0,-100.00,SW,232,4.0,9.0,75,0.00,,,0.00,338.000000,,2013-09-10 16:43:00,
2013-09-10 11:53:00,83.0,74.0,-100.00,SW,232,4.0,9.0,75,0.00,,,0.00,338.000000,,2013-09-10 16:53:00,
2013-09-10 12:03:00,83.0,74.0,-100.00,SW,232,4.0,9.0,75,0.00,,,0.00,338.000000,,2013-09-10 17:03:00,
2013-09-10 12:12:00,83.0,74.0,-100.00,SW,232,4.0,9.0,75,0.00,,,0.00,338.000000,,2013-09-10 17:12:00,
2013-09-10 12:43:00,85.0,74.0,-100.00,SW,232,3.0,8.0,70,0.00,,,0.00,379.000000,,2013-09-10 17:43:00,
2013-09-10 12:53:00,85.0,74.0,-100.00,SW,232,3.0,8.0,70,0.00,,,0.00,379.000000,,2013-09-10 17:53:00,
2013-09-10 13:02:00,85.0,74.0,-100.00,SW,232,3.0,8.0,70,0.00,,,0.00,379.000000,,2013-09-10 18:02:00,
2013-09-10 13:12:00,85.0,74.0,-100.00,SW,232,3.0,8.0,70,0.00,,,0.00,379.000000,,2013-09-10 18:12:00,
2013-09-10 13:43:00,87.0,75.0,-100.00,WSW,252,3.0,9.0,67,0.00,,,0.00,412.000000,,2013-09-10 18:43:00,
2013-09-10 13:52:00,87.0,75.0,-100.00,WSW,252,3.0,9.0,67,0.00,,,0.00,412.000000,,2013-09-10 18:52:00,
2013-09-10 14:02:00,87.0,75.0,-100.00,WSW,252,3.0,9.0,67,0.00,,,0.00,412.000000,,2013-09-10 19:02:00,
2013-09-10 14:11:00,87.0,75.0,-100.00,WSW,252,3.0,9.0,67,0.00,,,0.00,412.000000,,2013-09-10 19:11:00,
2013-09-10 14:42:00,88.0,75.0,-100.00,SSW,192,2.0,9.0,66,0.00,,,0.00,573.000000,,2013-09-10 19:42:00,
2013-09-10 14:52:00,88.0,75.0,-100.00,SSW,192,2.0,9.0,66,0.00,,,0.00,573.000000,,2013-09-10 19:52:00,
2013-09-10 15:02:00,88.0,75.0,-100.00,SSW,192,2.0,9.0,66,0.00,,,0.00,573.000000,,2013-09-10 20:02:00,
2013-09-10 15:12:00,88.0,75.0,-100.00,SSW,192,2.0,9.0,66,0.00,,,0.00,573.000000,,2013-09-10 20:12:00,
2013-09-10 15:42:00,90.0,76.0,-100.00,SSW,192,3.0,8.0,63,0.00,,,0.00,571.000000,,2013-09-10 20:42:00,
2013-09-10 15:52:00,90.0,76.0,-100.00,SSW,192,3.0,8.0,63,0.00,,,0.00,571.000000,,2013-09-10 20:52:00,
2013-09-10 16:03:00,90.0,76.0,-100.00,SSW,192,3.0,8.0,63,0.00,,,0.00,571.000000,,2013-09-10 21:03:00,
2013-09-10 16:11:00,90.0,76.0,-100.00,SSW,192,3.0,8.0,63,0.00,,,0.00,571.000000,,2013-09-10 21:11:00,
2013-09-10 16:44:00,90.0,75.0,-100.00,SSW,209,3.0,7.0,62,0.00,,,0.00,449.000000,,2013-09-10 21:44:00,
2013-09-10 16:54:00,90.0,75.0,-100.00,SSW,209,3.0,7.0,62,0.00,,,0.00,449.000000,,2013-09-10 21:54:00,
2013-09-10 17:04:00,90.0,75.0,-100.00,SSW,209,3.0,7.0,62,0.00,,,0.00,449.000000,,2013-09-10 22:04:00,
2013-09-10 17:14:00,90.0,75.0,-100.00,SSW,209,3.0,7.0,62,0.00,,,0.00,449.000000,,2013-09-10 22:14:00,
2013-09-10 17:42:00,84.0,70.0,-100.00,South,181,3.0,14.0,62,0.00,,,0.00,321.000000,,2013-09-10 22:42:00,
2013-09-10 17:54:00,84.0,70.0,-100.00,South,181,3.0,14.0,62,0.00,,,0.00,321.000000,,2013-09-10 22:54:00,
2013-09-10 18:03:00,84.0,70.0,-100.00,South,181,3.0,14.0,62,0.00,,,0.00,321.000000,,2013-09-10 23:03:00,
2013-09-10 18:13:00,84.0,70.0,-100.00,South,181,3.0,14.0,62,0.00,,,0.00,321.000000,,2013-09-10 23:13:00,
2013-09-10 18:42:00,81.0,70.0,-100.00,South,186,0.0,6.0,69,0.00,,,0.00,152.000000,,2013-09-10 23:42:00,
2013-09-10 18:53:00,81.0,70.0,-100.00,South,186,0.0,6.0,69,0.00,,,0.00,152.000000,,2013-09-10 23:53:00,
2013-09-10 19:02:00,81.0,70.0,-100.00,South,186,0.0,6.0,69,0.00,,,0.00,152.000000,,2013-09-11 00:02:00,
2013-09-10 19:11:00,81.0,70.0,-100.00,South,186,0.0,6.0,69,0.00,,,0.00,152.000000,,2013-09-11 00:11:00,
2013-09-10 19:42:00,75.0,72.0,-100.00,SSW,213,1.0,3.0,90,0.00,,,0.00,27.000000,,2013-09-11 00:42:00,
2013-09-10 19:52:00,75.0,72.0,-100.00,SSW,213,1.0,3.0,90,0.00,,,0.00,27.000000,,2013-09-11 00:52:00,
2013-09-10 20:02:00,75.0,72.0,-100.00,SSW,213,1.0,3.0,90,0.00,,,0.00,27.000000,,2013-09-11 01:02:00,
2013-09-10 20:11:00,75.0,72.0,-100.00,SSW,213,1.0,3.0,90,0.00,,,0.00,27.000000,,2013-09-11 01:11:00,
2013-09-10 20:42:00,72.0,71.0,-100.00,SE,140,1.0,3.0,97,0.00,,,0.00,0.000000,,2013-09-11 01:42:00,
2013-09-10 20:53:00,72.0,71.0,-100.00,SE,140,1.0,3.0,97,0.00,,,0.00,0.000000,,2013-09-11 01:53:00,
2013-09-10 21:02:00,72.0,71.0,-100.00,SE,140,1.0,3.0,97,0.00,,,0.00,0.000000,,2013-09-11 02:02:00,
2013-09-10 21:11:00,72.0,71.0,-100.00,SE,140,1.0,3.0,97,0.00,,,0.00,0.000000,,2013-09-11 02:11:00,
2013-09-10 21:43:00,72.0,70.0,-100.00,SE,130,2.0,5.0,93,0.00,,,0.00,0.000000,,2013-09-11 02:43:00,
2013-09-10 21:52:00,72.0,70.0,-100.00,SE,130,2.0,5.0,93,0.00,,,0.00,0.000000,,2013-09-11 02:52:00,
2013-09-10 22:02:00,72.0,70.0,-100.00,SE,130,2.0,5.0,93,0.00,,,0.00,0.000000,,2013-09-11 03:02:00,
2013-09-10 22:12:00,72.0,70.0,-100.00,SE,130,2.0,5.0,93,0.00,,,0.00,0.000000,,2013-09-11 03:12:00,
2013-09-10 22:45:00,70.0,69.0,-100.00,SSE,148,1.0,5.0,98,0.00,,,0.00,0.000000,,2013-09-11 03:45:00,
2013-09-10 22:55:00,70.0,69.0,-100.00,SSE,148,1.0,5.0,98,0.00,,,0.00,0.000000,,2013-09-11 03:55:00,
2013-09-10 23:05:00,70.0,69.0,-100.00,SSE,148,1.0,5.0,98,0.00,,,0.00,0.000000,,2013-09-11 04:05:00,
2013-09-10 23:14:00,70.0,69.0,-100.00,SSE,148,1.0,5.0,98,0.00,,,0.00,0.000000,,2013-09-11 04:14:00,
2013-09-10 23:44:00,69.0,69.0,-100.00,SSE,165,0.0,3.0,100,0.00,,,0.00,0.000000,,2013-09-11 04:44:00,
2013-09-10 23:54:00,69.0,69.0,-100.00,SSE,165,0.0,3.0,100,0.00,,,0.00,0.000000,,2013-09-11 04:54:00,